Regional Weather Roundup
Issued by NWS Portland, ME

Current Version | Previous Version | Text Only | Print | Product List | Glossary Off
Versions: 1 2 3 4 5 6 7 8 9 10 11 12 13 14 15 16 17 18 19 20 21 22 23 24 25 26 27 28 29 30 31 32 33 34 35 36 37 38 39 40 41 42 43 44 45 46 47 48 49 50
000 ASUS41 KGYX 210205 RWRGYX WEATHER ROUNDUP FOR MAINE AND NEW HAMPSHIRE NATIONAL WEATHER SERVICE GRAY ME 1000 PM EDT SAT OCT 20 2018 MEZ002-005-006-010-012-015-018-020-021-024-026-027-029-210300- MAINE CITY SKY/WX TMP DP RH WIND PRES REMARKS PORTLAND FAIR 45 37 73 W5 29.54S SANFORD FAIR 33 32 96 CALM 29.56R BAR HARBOR FAIR 46 45 96 N3 29.53R WISCASSET FAIR 40 39 97 CALM 29.54S ROCKLAND FAIR 41 40 96 W5 29.52R FRYEBURG FAIR 36 32 85 CALM 29.55R LEWISTONAUBURN FAIR 43 35 73 CALM 29.54R AUGUSTA FAIR 49 33 54 NW5 29.53S WATERVILLE FAIR 47 31 53 NW5 29.51R BANGOR FAIR 41 38 89 CALM 29.53R GREENVILLE N/A 44 32 62 NW9G20 29.49R MILLINOCKET FAIR 47 31 53 W6 29.52R HOULTON FAIR 46 32 58 NW5 29.49R PRESQUE ISLE FAIR 44 32 62 W9 29.50R FRENCHVILLE FAIR 41 28 60 SW10 29.45R CARIBOU FAIR 44 30 57 W8 29.47R $$ NHZ002-005-008-009-011-012-014-210300- NEW HAMPSHIRE CITY SKY/WX TMP DP RH WIND PRES REMARKS ROCHESTER FAIR 43 39 86 CALM 29.55R NASHUA MOCLDY 45 43 93 NW5 29.58R MANCHESTER FAIR 48 41 76 S3 29.56R CONCORD FAIR 37 35 92 CALM 29.58R LACONIA FAIR 42 38 85 W6 29.56R PLYMOUTH FAIR 37 34 87 MISG 29.56R BERLIN FAIR 34 31 88 CALM 29.56R WHITEFIELD CLOUDY 38 34 85 NE3 29.57R JAFFREY CLOUDY 42 42 100 CALM 29.59R KEENE CLOUDY 42 40 92 S5 29.60R LEBANON FAIR 43 34 70 S5 29.57R MT WASHINGTON CLOUDY 23 21 93 NW38 N/A WCI 4 $$ VTZ005-007-008-210300- VERMONT CITY SKY/WX TMP DP RH WIND PRES REMARKS ST JOHNSBURY N/A 42 34 73 MISG 29.57R MONTPELIER FAIR 45 32 60 NW5 29.62R BURLINGTON MOCLDY 50 31 48 N10 29.61R $$ MAZ007-012-024-CTZ003-RIZ002-NYZ038-NYZ072-210300- SOUTHERN NEW ENGLAND AND NY CITY SKY/WX TMP DP RH WIND PRES REMARKS BOSTON FAIR 56 42 59 W9 29.58R WORCESTER FAIR 44 41 89 W8 29.59S NANTUCKET CLOUDY 57 52 83 W8 29.60R PROVIDENCE FAIR 49 44 83 W5 29.60S HARTFORD MOCLDY 48 44 86 CALM 29.61R ALBANY CLOUDY 48 42 80 SW5 29.62S NEW YORK CITY MOCLDY 57 42 57 N8 29.61F $$ ANZ081-ANZ082-ANZ150-NHZ014-MEZ023>029-210300- COASTAL MARINE OBSERVATIONS STATION/POSITION TIME TEMP WIND PRES WAVE AIR SEA DIR/SP/G HT/PER (UTC) (F) (DEG/KT/KT) (MB) (FT/S) MOUNT DESERT ROC 0200 54 210/ 12/ 13 1000.0R MATINICUS ROCK 0100 55 230/ 16/ 17 999.2F ISLE OF SHOALS 0100 55 250/ 13/ 14 1000.0F JEFFREYS LEDGE 0106 55 N/A 2/ 6 $$ .............KEY.............. WCI - WIND CHILL TC - TEMPERATURE IN CELSIUS VSB - VISIBILITY IN MILES HX - HEAT INDEX FAIR- INDICATES FEW OR NO CLOUDS BELOW 12,000 FT, WITH NO SIGNIFICANT WEATHER AND/OR OBSTRUCTIONS TO VISIBILITY.

USA.gov is the U.S. government's official web portal to all federal, state and local government web resources and services.